KJ6WEG Weather Reports


Display with metric or nautical units.
time (UTC)temp
F
wind
direction
speed
MPH
gust
MPH
rain 1hr
in
rain 24hr
in
rain mn
in
humidity
%
barometer
mb
20260903115555 62 174 2.0 6.0 0.00 0.01 0.00 91 1015.5
20260903115053 62 219 0.0 6.0 0.00 0.01 0.00 91 1015.6
20260903114607 62 188 2.0 6.0 0.00 0.01 0.00 91 1015.7
20260903114055 62 227 1.0 5.0 0.00 0.01 0.00 91 1015.8
20260903113555 62 178 1.0 6.0 0.00 0.01 0.00 91 1015.7
20260903113107 62 222 2.0 6.0 0.00 0.01 0.00 91 1015.8
20260903112556 62 186 1.0 6.0 0.00 0.01 0.00 91 1015.8
20260903112056 62 217 1.0 6.0 0.00 0.01 0.00 91 1015.9
20260903111603 62 233 0.0 6.0 0.00 0.01 0.00 91 1016.0
20260903111059 62 178 1.0 4.0 0.00 0.01 0.00 91 1016.0
20260903110556 62 185 1.0 5.0 0.00 0.01 0.00 91 1015.9
20260903110104 62 177 1.0 6.0 0.00 0.01 0.00 91 1016.1
20260903105555 62 219 2.0 6.0 0.00 0.01 0.00 91 1016.1
20260903105056 62 155 2.0 5.0 0.00 0.01 0.00 91 1016.0
20260903104606 62 184 1.0 4.0 0.00 0.01 0.00 91 1016.0
20260903104055 62 0 0.0 5.0 0.00 0.01 0.00 91 1016.2
20260903103555 62 194 2.0 5.0 0.00 0.01 0.00 91 1016.2
20260903103106 62 167 1.0 5.0 0.00 0.01 0.00 91 1016.1
20260903102556 62 172 2.0 5.0 0.00 0.01 0.00 91 1016.2
20260903102055 62 173 1.0 4.0 0.00 0.01 0.00 91 1016.2
20260903101611 62 183 1.0 4.0 0.00 0.01 0.00 91 1016.2
20260903101054 62 0 1.0 4.0 0.00 0.01 0.00 91 1016.1
20260903100554 61 165 1.0 3.0 0.00 0.01 0.00 91 1016.3
20260903100109 61 0 0.0 3.0 0.00 0.01 0.00 91 1016.3
20260903095554 61 0 0.0 4.0 0.00 0.01 0.00 91 1016.4
20260903095054 61 219 1.0 4.0 0.00 0.01 0.00 91 1016.3
20260903094610 61 214 1.0 4.0 0.00 0.01 0.00 91 1016.4
20260903094056 61 0 0.0 2.0 0.00 0.01 0.00 91 1016.5
20260903093554 61 0 0.0 4.0 0.00 0.01 0.00 91 1016.4
20260903093112 61 0 1.0 4.0 0.00 0.01 0.00 91 1016.4
20260903092555 61 0 0.0 3.0 0.00 0.01 0.00 91 1016.6
20260903092056 61 226 0.0 3.0 0.00 0.01 0.00 92 1016.6
20260903091604 61 0 0.0 2.0 0.00 0.01 0.00 91 1016.6
20260903091055 61 0 0.0 2.0 0.00 0.01 0.00 91 1016.6
20260903090554 61 0 0.0 3.0 0.00 0.01 0.00 91 1016.7
20260903090107 61 0 0.0 3.0 0.00 0.01 0.00 91 1016.7
20260903085553 61 219 1.0 3.0 0.00 0.01 0.00 92 1016.7
20260903085053 61 175 0.0 3.0 0.00 0.01 0.00 92 1016.8
20260903084605 61 212 0.0 3.0 0.00 0.01 0.00 92 1016.7
20260903084054 61 0 0.0 3.0 0.00 0.01 0.00 92 1016.7
20260903083556 61 210 0.0 3.0 0.00 0.01 0.00 91 1016.8
20260903083104 61 0 0.0 4.0 0.00 0.01 0.00 91 1016.8
20260903082553 61 0 1.0 4.0 0.00 0.01 0.00 92 1016.8
20260903082053 61 229 1.0 4.0 0.00 0.01 0.00 92 1016.7
20260903081604 61 0 1.0 4.0 0.00 0.01 0.00 92 1016.8
20260903081057 61 268 0.0 4.0 0.00 0.01 0.00 92 1016.8
20260903080553 61 213 1.0 4.0 0.00 0.01 0.00 92 1016.8
20260903075558 61 0 0.0 3.0 0.00 0.01 0.00 92 1016.8
20260903075052 61 219 0.0 3.0 0.00 0.01 0.00 92 1016.8
20260903074604 61 0 0.0 3.0 0.00 0.01 0.00 92 1016.8
20260903074054 61 0 0.0 3.0 0.00 0.01 0.00 92 1016.7
20260903073555 61 210 0.0 3.0 0.00 0.01 0.00 93 1016.8
20260903073106 61 237 0.0 3.0 0.00 0.01 0.00 93 1016.9
20260903072554 61 0 0.0 3.0 0.00 0.01 0.00 93 1016.9
20260903072054 61 212 1.0 4.0 0.00 0.01 0.00 92 1016.9
20260903071612 61 0 0.0 4.0 0.00 0.01 0.00 92 1016.8
20260903071054 61 239 1.0 4.0 0.00 0.01 0.00 92 1016.8
20260903070555 61 245 1.0 4.0 0.00 0.01 0.00 92 1016.8
20260903070109 61 233 1.0 5.0 0.00 0.01 0.00 92 1016.8
20260903065555 61 250 0.0 5.0 0.00 0.01 0.01 92 1016.7
20260903065054 61 236 1.0 5.0 0.00 0.01 0.01 92 1016.7
20260903064603 61 252 0.0 4.0 0.00 0.01 0.01 92 1016.7
20260903064055 61 247 0.0 3.0 0.00 0.01 0.01 92 1016.7
20260903063554 61 0 0.0 3.0 0.00 0.01 0.01 92 1016.8
20260903063126 61 0 0.0 4.0 0.00 0.01 0.01 92 1017.1
20260903062553 61 0 0.0 5.0 0.00 0.01 0.01 91 1017.0
20260903062054 61 0 1.0 5.0 0.00 0.01 0.01 91 1017.1
20260903061605 61 242 1.0 5.0 0.00 0.01 0.01 91 1017.1
20260903061054 61 0 0.0 4.0 0.00 0.01 0.01 91 1017.1
20260903060553 61 285 0.0 4.0 0.00 0.01 0.01 91 1017.2
20260903060118 61 227 0.0 4.0 0.00 0.01 0.01 91 1017.3
20260903055554 61 0 0.0 2.0 0.00 0.01 0.01 91 1017.2
20260903055054 61 0 0.0 2.0 0.00 0.01 0.01 91 1017.2
20260903054606 61 0 0.0 1.0 0.00 0.01 0.01 91 1017.3
20260903054054 61 0 0.0 2.0 0.00 0.01 0.01 91 1017.3
20260903053557 61 0 0.0 3.0 0.00 0.01 0.01 91 1017.3
20260903053105 61 0 0.0 3.0 0.00 0.01 0.01 91 1017.4
20260903052553 61 314 0.0 3.0 0.00 0.01 0.01 91 1017.4
20260903052057 61 306 0.0 5.0 0.00 0.01 0.01 91 1017.5
20260903051610 61 0 1.0 5.0 0.00 0.01 0.01 91 1017.6
20260903051054 61 0 0.0 5.0 0.00 0.01 0.01 91 1017.6
20260903050552 61 0 1.0 5.0 0.00 0.01 0.01 91 1017.6
20260903050129 61 301 0.0 3.0 0.00 0.01 0.01 92 1017.6
20260903045556 61 0 0.0 3.0 0.00 0.01 0.01 92 1017.6
20260903045052 61 0 0.0 0.0 0.00 0.01 0.01 92 1017.6
20260903044606 61 0 0.0 0.0 0.00 0.01 0.01 92 1017.5
20260903044052 61 0 0.0 3.0 0.00 0.01 0.01 92 1017.5
20260903043553 61 0 0.0 3.0 0.00 0.01 0.01 92 1017.4
20260903043103 61 0 0.0 3.0 0.00 0.01 0.01 92 1017.4
20260903042553 61 239 0.0 3.0 0.00 0.01 0.01 92 1017.4
20260903042053 61 0 0.0 4.0 0.00 0.01 0.01 92 1017.4
20260903041606 62 0 0.0 5.0 0.00 0.01 0.01 92 1017.1
20260903041056 62 225 0.0 5.0 0.00 0.01 0.01 92 1017.2
20260903040553 62 230 0.0 3.0 0.00 0.01 0.01 91 1017.1
20260903040110 62 264 0.0 3.0 0.00 0.01 0.01 91 1017.1
20260903035552 62 0 0.0 4.0 0.00 0.01 0.01 91 1017.1
20260903035056 62 224 0.0 4.0 0.00 0.01 0.01 91 1017.0
20260903034602 62 0 1.0 5.0 0.00 0.01 0.01 91 1017.0
20260903034053 62 220 1.0 5.0 0.00 0.01 0.01 91 1016.9
20260903033553 62 0 1.0 4.0 0.00 0.01 0.01 91 1016.8
20260903033107 62 0 0.0 4.0 0.00 0.01 0.01 91 1016.8
20260903032553 62 229 0.0 0.0 0.00 0.01 0.01 91 1016.8
20260903032056 62 0 0.0 0.0 0.00 0.01 0.01 90 1016.7
20260903031604 62 0 0.0 2.0 0.00 0.01 0.01 90 1016.5
20260903031056 62 0 0.0 3.0 0.00 0.01 0.01 90 1016.6
20260903030553 62 0 0.0 3.0 0.00 0.01 0.01 90 1016.5
20260903030108 62 74 0.0 5.0 0.00 0.01 0.01 90 1016.5
20260903025552 62 55 1.0 5.0 0.00 0.01 0.01 90 1016.5
20260903025056 62 224 1.0 5.0 0.00 0.01 0.01 90 1016.5
20260903024604 63 228 1.0 5.0 0.00 0.01 0.01 89 1016.5
20260903024057 63 234 0.0 3.0 0.00 0.01 0.01 89 1016.4
20260903023600 63 0 0.0 4.0 0.00 0.01 0.01 89 1016.5
20260903023107 63 221 0.0 6.0 0.00 0.01 0.01 89 1016.6
20260903022553 63 327 2.0 9.0 0.00 0.01 0.01 88 1016.6
20260903022054 63 0 2.0 9.0 0.00 0.01 0.01 88 1016.7
20260903021607 64 298 1.0 6.0 0.00 0.01 0.01 87 1016.6
20260903021055 64 0 1.0 8.0 0.00 0.01 0.01 87 1016.6
20260903020555 64 310 2.0 9.0 0.00 0.01 0.01 87 1016.7
20260903020106 64 183 3.0 9.0 0.00 0.01 0.01 87 1016.7
20260903015556 64 292 1.0 10.0 0.00 0.01 0.01 87 1016.8
20260903015056 64 360 2.0 10.0 0.00 0.01 0.01 86 1016.8
20260903014608 64 234 2.0 10.0 0.00 0.01 0.01 86 1016.8
20260903014056 64 215 3.0 10.0 0.00 0.01 0.01 86 1016.8
20260903013554 64 238 1.0 8.0 0.00 0.01 0.01 86 1016.8
20260903013107 65 238 1.0 7.0 0.00 0.01 0.01 86 1016.8
20260903012555 65 316 1.0 8.0 0.00 0.01 0.01 85 1016.8
20260903012056 65 296 1.0 8.0 0.00 0.01 0.01 85 1016.8
20260903011611 65 13 0.0 4.0 0.00 0.01 0.01 84 1016.8
20260903011053 65 343 0.0 4.0 0.00 0.01 0.01 84 1016.8
20260903010558 65 248 0.0 8.0 0.00 0.01 0.01 84 1016.8
20260903010105 65 0 2.0 8.0 0.00 0.01 0.01 83 1016.8
20260903005555 66 249 1.0 7.0 0.00 0.01 0.01 82 1016.8
20260903005053 66 63 0.0 7.0 0.00 0.01 0.01 82 1016.9
20260903004605 66 312 0.0 8.0 0.00 0.01 0.01 81 1016.8
20260903004055 66 0 2.0 8.0 0.00 0.01 0.01 81 1016.8
20260903003559 66 284 1.0 9.0 0.00 0.01 0.01 81 1016.9
20260903003102 67 0 1.0 10.0 0.00 0.01 0.01 81 1017.0
20260903002555 67 290 2.0 10.0 0.00 0.01 0.01 81 1017.1
20260903002058 67 319 1.0 9.0 0.00 0.01 0.01 82 1017.1
20260903001607 67 198 1.0 13.0 0.00 0.01 0.01 81 1017.2
20260903001054 66 225 3.0 13.0 0.00 0.01 0.01 82 1017.2
20260903000554 67 226 4.0 13.0 0.00 0.01 0.01 81 1017.3
20260903000104 67 0 4.0 11.0 0.00 0.01 0.01 81 1017.3
20260902235555 67 255 3.0 12.0 0.00 0.01 0.01 81 1017.4
20260902235054 67 217 5.0 14.0 0.00 0.01 0.01 79 1017.3
20260902234603 68 215 2.0 14.0 0.00 0.01 0.01 78 1017.4
20260902234054 68 299 4.0 14.0 0.00 0.01 0.01 76 1017.4
20260902233554 68 245 2.0 12.0 0.00 0.01 0.01 76 1017.4
20260902233105 68 246 3.0 11.0 0.00 0.01 0.01 74 1017.4
20260902232553 68 257 4.0 11.0 0.00 0.01 0.01 75 1017.3
20260902232054 68 199 2.0 9.0 0.00 0.01 0.01 76 1017.3
20260902231609 68 206 4.0 12.0 0.00 0.01 0.01 76 1017.4
20260902231055 68 291 4.0 12.0 0.00 0.01 0.01 77 1017.4
20260902230553 68 253 4.0 12.0 0.00 0.01 0.01 76 1017.4
20260902225555 69 246 2.0 12.0 0.00 0.01 0.01 75 1017.6
20260902225055 69 288 3.0 12.0 0.00 0.01 0.01 75 1017.7
20260902224616 69 250 3.0 11.0 0.00 0.01 0.01 75 1017.6
20260902224055 69 269 3.0 10.0 0.00 0.01 0.01 75 1017.6
20260902223554 69 246 3.0 10.0 0.00 0.01 0.01 75 1017.7
20260902223109 69 198 3.0 10.0 0.00 0.01 0.01 76 1017.6
20260902222554 69 212 3.0 9.0 0.00 0.01 0.01 76 1017.7
20260902222054 69 296 2.0 9.0 0.00 0.01 0.01 76 1017.8
20260902221605 69 248 4.0 11.0 0.00 0.01 0.01 76 1017.8
20260902221056 69 275 3.0 11.0 0.00 0.01 0.01 75 1017.8
20260902220554 69 238 2.0 10.0 0.00 0.01 0.01 76 1017.7
20260902220107 69 229 3.0 10.0 0.00 0.01 0.01 78 1018.0
20260902215555 69 238 2.0 10.0 0.00 0.01 0.01 78 1018.0
20260902215055 68 319 4.0 10.0 0.00 0.01 0.01 77 1018.0
20260902214610 69 257 4.0 10.0 0.00 0.01 0.01 77 1018.0
20260902214057 69 225 2.0 9.0 0.00 0.01 0.01 77 1018.0
20260902213554 69 334 3.0 9.0 0.00 0.01 0.01 77 1018.0
20260902213105 69 212 2.0 9.0 0.00 0.01 0.01 75 1018.0
20260902212556 69 246 2.0 10.0 0.00 0.01 0.01 78 1018.1
20260902212055 69 277 3.0 10.0 0.00 0.01 0.01 78 1018.0
20260902211604 69 206 3.0 10.0 0.00 0.01 0.01 78 1018.0
20260902211054 69 249 2.0 9.0 0.00 0.01 0.01 78 1018.1
20260902210554 69 329 2.0 9.0 0.00 0.01 0.01 79 1018.1
20260902210106 69 263 2.0 9.0 0.00 0.01 0.01 80 1018.2
20260902205555 68 200 3.0 11.0 0.00 0.01 0.01 80 1018.1
20260902205055 68 212 2.0 11.0 0.00 0.01 0.01 80 1018.1
20260902204606 68 300 3.0 9.0 0.00 0.01 0.01 80 1018.1
20260902204055 68 239 2.0 10.0 0.00 0.01 0.01 82 1018.1
20260902203555 68 192 2.0 10.0 0.00 0.01 0.01 82 1018.2
20260902203104 68 280 1.0 11.0 0.00 0.01 0.01 82 1018.1
20260902202559 67 236 3.0 11.0 0.00 0.01 0.01 83 1018.2
20260902202054 67 215 3.0 10.0 0.00 0.01 0.01 83 1018.2
20260902201606 67 221 2.0 10.0 0.00 0.01 0.01 84 1018.1
20260902201055 67 269 3.0 12.0 0.00 0.01 0.01 84 1018.3
20260902200554 67 285 3.0 12.0 0.00 0.01 0.01 85 1018.3
20260902200121 66 219 3.0 12.0 0.00 0.01 0.01 86 1018.3
20260902195556 66 326 3.0 11.0 0.00 0.01 0.01 87 1018.4
20260902195056 65 224 3.0 11.0 0.00 0.01 0.01 87 1018.4
20260902194607 66 233 2.0 10.0 0.00 0.01 0.01 89 1018.5
20260902194054 65 273 3.0 10.0 0.00 0.01 0.01 89 1018.6
20260902193557 65 242 3.0 10.0 0.00 0.01 0.01 88 1018.5
20260902193101 65 273 2.0 9.0 0.00 0.01 0.01 89 1018.5
20260902192554 65 221 2.0 9.0 0.00 0.01 0.01 89 1018.5
20260902192057 65 0 2.0 13.0 0.01 0.01 0.01 90 1018.5
20260902191605 65 239 3.0 13.0 0.01 0.01 0.01 89 1018.6
20260902191053 65 227 2.0 9.0 0.01 0.01 0.01 90 1018.6
20260902190555 65 252 2.0 9.0 0.01 0.01 0.01 90 1018.6
20260902190109 65 311 1.0 5.0 0.01 0.01 0.01 90 1018.5
20260902185556 65 311 0.0 4.0 0.01 0.01 0.01 90 1018.5
20260902185054 65 213 1.0 4.0 0.01 0.01 0.01 90 1018.5
20260902184607 65 231 0.0 4.0 0.01 0.01 0.01 89 1018.5
20260902184054 65 266 1.0 6.0 0.01 0.01 0.01 89 1018.5
20260902183554 65 230 1.0 6.0 0.01 0.01 0.01 87 1018.5
20260902183113 65 228 1.0 5.0 0.01 0.01 0.01 87 1018.5
20260902182555 66 233 2.0 5.0 0.01 0.01 0.01 85 1018.5
20260902182055 66 267 1.0 6.0 0.00 0.00 0.00 83 1018.4
20260902181607 66 219 1.0 6.0 0.00 0.00 0.00 81 1018.4
20260902181054 67 245 0.0 7.0 0.00 0.00 0.00 80 1018.3
20260902180554 67 0 3.0 7.0 0.00 0.00 0.00 80 1018.2
20260902180132 67 236 3.0 7.0 0.00 0.00 0.00 80 1018.2
20260902175554 67 241 3.0 13.0 0.00 0.00 0.00 79 1018.1
20260902175056 67 220 4.0 13.0 0.00 0.00 0.00 79 1018.1
20260902174604 67 162 1.0 14.0 0.00 0.00 0.00 79 1018.0
20260902174059 67 200 4.0 14.0 0.00 0.00 0.00 79 1018.0
20260902173555 67 175 6.0 13.0 0.00 0.00 0.00 78 1017.9
20260902173105 67 192 3.0 12.0 0.00 0.00 0.00 78 1017.9
20260902172556 67 192 4.0 12.0 0.00 0.00 0.00 77 1017.8
20260902172056 67 213 2.0 7.0 0.00 0.00 0.00 75 1017.7
20260902171611 67 179 1.0 8.0 0.00 0.00 0.00 76 1017.7
20260902171054 67 217 2.0 9.0 0.00 0.00 0.00 76 1017.7
20260902170555 67 154 4.0 9.0 0.00 0.00 0.00 75 1017.7
20260902170108 67 233 2.0 9.0 0.00 0.00 0.00 75 1017.7
20260902165556 67 217 4.0 9.0 0.00 0.00 0.00 76 1017.7
20260902165052 67 109 4.0 11.0 0.00 0.00 0.00 75 1017.6
20260902164607 67 198 3.0 11.0 0.00 0.00 0.00 75 1017.5
20260902164054 67 221 5.0 11.0 0.00 0.00 0.00 75 1017.6
20260902163556 66 179 3.0 11.0 0.00 0.00 0.00 75 1017.5
20260902163106 66 175 2.0 11.0 0.00 0.00 0.00 76 1017.5
20260902162553 66 148 5.0 9.0 0.00 0.00 0.00 76 1017.5
20260902162054 65 104 3.0 9.0 0.00 0.00 0.00 78 1017.6
20260902161608 64 153 2.0 8.0 0.00 0.00 0.00 78 1017.6
20260902161054 64 140 3.0 10.0 0.00 0.00 0.00 79 1017.5
20260902160556 64 147 3.0 10.0 0.00 0.00 0.00 78 1017.5
20260902160113 64 150 5.0 9.0 0.00 0.00 0.00 79 1017.6
20260902155557 63 82 3.0 7.0 0.00 0.00 0.00 79 1017.5
20260902155054 63 140 3.0 8.0 0.00 0.00 0.00 79 1017.5
20260902154605 63 146 3.0 8.0 0.00 0.00 0.00 80 1017.5
20260902154055 63 128 2.0 7.0 0.00 0.00 0.00 80 1017.5
20260902153555 63 117 3.0 7.0 0.00 0.00 0.00 80 1017.7
20260902153104 62 0 2.0 7.0 0.00 0.00 0.00 81 1017.6
20260902152554 62 117 2.0 7.0 0.00 0.00 0.00 81 1017.7
20260902152054 62 141 3.0 7.0 0.00 0.00 0.00 81 1017.7
20260902151607 62 132 2.0 5.0 0.00 0.00 0.00 81 1017.7
20260902151057 61 128 1.0 7.0 0.00 0.00 0.00 81 1017.6
20260902150557 61 169 2.0 8.0 0.00 0.00 0.00 81 1017.6
20260902150105 61 137 2.0 8.0 0.00 0.00 0.00 81 1017.5
20260902145553 61 134 3.0 7.0 0.00 0.00 0.00 81 1017.4
20260902145055 61 202 3.0 8.0 0.00 0.00 0.00 82 1017.3
20260902144602 61 178 3.0 8.0 0.00 0.00 0.00 82 1017.1
20260902144054 61 150 4.0 8.0 0.00 0.00 0.00 82 1017.0
20260902143557 61 115 3.0 7.0 0.00 0.00 0.00 82 1016.8
20260902143108 61 153 2.0 8.0 0.00 0.00 0.00 82 1016.8
20260902142557 61 128 3.0 9.0 0.00 0.00 0.00 82 1016.8
20260902142053 61 158 2.0 9.0 0.00 0.00 0.00 82 1016.9
20260902141601 61 183 4.0 9.0 0.00 0.00 0.00 82 1016.9
20260902141052 61 138 3.0 8.0 0.00 0.00 0.00 82 1016.8
20260902140556 61 155 4.0 8.0 0.00 0.00 0.00 82 1017.0
20260902135556 61 127 4.0 8.0 0.00 0.00 0.00 82 1016.9
20260902135053 61 183 4.0 8.0 0.00 0.00 0.00 82 1016.8
20260902134608 61 180 4.0 8.0 0.00 0.00 0.00 82 1016.8
20260902134055 61 148 4.0 8.0 0.00 0.00 0.00 83 1016.8
20260902133558 61 157 2.0 5.0 0.00 0.00 0.00 83 1016.8
20260902133102 61 155 2.0 5.0 0.00 0.00 0.00 83 1016.8
20260902132554 61 0 1.0 7.0 0.00 0.00 0.00 83 1016.7
20260902132054 61 114 2.0 9.0 0.00 0.00 0.00 83 1016.6
20260902131604 61 111 3.0 9.0 0.00 0.00 0.00 83 1016.6
20260902131053 61 113 2.0 7.0 0.00 0.00 0.00 83 1016.6
20260902130600 61 140 3.0 7.0 0.00 0.00 0.00 83 1016.7
20260902130106 61 148 2.0 8.0 0.00 0.00 0.00 83 1016.7
20260902125554 61 144 2.0 8.0 0.00 0.00 0.00 83 1016.7
20260902125053 61 152 3.0 7.0 0.00 0.00 0.00 83 1016.6
20260902124608 61 147 3.0 7.0 0.00 0.00 0.00 83 1016.5
20260902124054 62 146 4.0 11.0 0.00 0.00 0.00 83 1016.6
20260902123555 62 168 3.0 11.0 0.00 0.00 0.00 83 1016.6
20260902123104 62 181 4.0 8.0 0.00 0.00 0.00 83 1016.6
20260902122558 62 136 3.0 6.0 0.00 0.00 0.00 83 1016.5
20260902122057 62 167 2.0 7.0 0.00 0.00 0.00 83 1016.5
20260902121613 62 167 3.0 7.0 0.00 0.00 0.00 84 1016.6
20260902121054 61 155 3.0 7.0 0.00 0.00 0.00 85 1016.5
20260902120554 61 161 2.0 7.0 0.00 0.00 0.00 85 1016.6
20260902120107 61 175 2.0 6.0 0.00 0.00 0.00 86 1016.6